Terminal Aerodrome Forecast
Issued by NWS

Home | Current Version | Previous Version | Text Only | Print | Product List | Glossary On
Versions: 1 2 3 4 5 6 7 8 9 10 11 12 13 14 15 16 17 18 19
000
FTUS46 KMTR 202300
TAFOAK
TAF
KOAK 202333Z 2100/2206 29015KT P6SM FEW025
     FM210500 24005KT P6SM OVC015
     FM211800 27008KT P6SM SCT020
     FM220400 24004KT P6SM BKN020=

USA.gov is the U.S. government's official web portal to all federal, state and local government web resources and services.